EW6612 Weather Reports


time (UTC)temp
C
wind
direction
speed
KPH
gust
KPH
rain 1hr
cm
rain 24hr
cm
rain mn
cm
humidity
%
barometer
mb
20180625080942 17 348 0.0 0.0 0.00 0.00 0.00 93 1018.0
20180625075942 17 348 0.0 0.0 0.00 0.00 0.00 93 1018.0
20180625074933 17 348 0.0 0.0 0.00 0.00 0.00 92 1018.0
20180625073931 17 348 0.0 0.0 0.00 0.00 0.00 92 1017.9
20180625072911 17 348 0.0 0.0 0.00 0.00 0.00 92 1017.9
20180625070905 17 275 0.0 0.0 0.00 0.00 0.00 92 1017.7
20180625065903 17 273 0.0 0.0 0.00 0.00 0.00 92 1017.7
20180625064857 17 269 0.0 0.0 0.00 0.00 0.00 92 1017.6
20180625063848 17 270 0.0 0.0 0.00 0.00 0.00 92 1017.5
20180625062847 17 269 0.0 0.0 0.00 0.00 0.00 92 1017.3
20180625061839 17 267 0.0 0.0 0.00 0.00 0.00 92 1017.3
20180625060833 17 267 0.0 0.0 0.00 0.00 0.00 92 1017.3
20180625055821 17 267 0.0 0.0 0.00 0.00 0.00 91 1017.3
20180625054813 17 296 0.0 0.0 0.00 0.00 0.00 91 1017.0
20180625053805 17 297 0.0 0.0 0.00 0.00 0.00 92 1016.7
20180625052758 17 297 0.0 0.0 0.00 0.00 0.00 92 1016.7
20180625051751 17 297 0.0 0.0 0.00 0.00 0.00 92 1016.7
20180625050743 17 295 0.0 0.0 0.00 0.00 0.00 91 1016.7
20180625045725 17 295 0.0 0.0 0.00 0.00 0.00 91 1016.9
20180625044726 17 306 0.0 0.0 0.00 0.00 0.00 92 1016.7
20180625043719 17 317 0.0 0.0 0.00 0.00 0.00 91 1016.6
20180625042709 17 317 0.0 0.0 0.00 0.00 0.00 91 1016.6
20180625041701 17 302 0.0 0.0 0.00 0.00 0.00 91 1016.4
20180625040654 17 298 0.0 0.0 0.00 0.00 0.00 91 1016.4
20180625035646 17 301 0.0 0.0 0.00 0.00 0.00 91 1016.3
20180625034638 17 298 0.0 0.0 0.00 0.00 0.00 91 1016.1
20180625033631 17 301 0.0 0.0 0.00 0.00 0.00 91 1016.1
20180625032622 17 300 0.0 0.0 0.00 0.00 0.00 91 1016.1
20180625031614 17 286 0.0 0.0 0.00 0.00 0.00 91 1016.1
20180625030605 17 286 0.0 0.0 0.00 0.00 0.00 91 1016.0
20180625025558 17 286 0.0 0.0 0.00 0.00 0.00 91 1016.1
20180625024549 17 291 0.0 0.0 0.00 0.00 0.00 91 1016.1
20180625023542 17 291 0.0 0.0 0.00 0.00 0.00 91 1016.0
20180625022536 17 291 0.0 0.0 0.00 0.00 0.00 91 1016.1
20180625021526 17 291 0.0 0.0 0.00 0.00 0.00 90 1015.9
20180625020518 17 291 0.0 0.0 0.00 0.00 0.00 90 1016.0
20180625015510 17 291 0.0 0.0 0.00 0.00 0.00 90 1016.0
20180625014501 17 291 0.0 0.0 0.00 0.00 0.00 90 1016.1
20180625013454 17 291 0.0 0.0 0.00 0.00 0.00 90 1016.2
20180625012436 17 291 0.0 0.0 0.00 0.00 0.00 90 1016.3
20180625011438 17 316 0.0 0.0 0.00 0.00 0.00 90 1016.4
20180625010422 17 311 0.0 0.0 0.00 0.00 0.00 90 1016.5
20180625005421 17 314 0.0 0.0 0.00 0.00 0.00 90 1016.6
20180625004414 18 328 0.0 0.0 0.00 0.00 0.00 90 1016.7
20180625003404 18 335 0.0 0.0 0.00 0.00 0.00 90 1016.7
20180625002354 18 286 0.0 0.0 0.00 0.00 0.00 90 1017.0
20180625001348 18 287 0.0 0.0 0.00 0.00 0.00 89 1017.0
20180625000337 18 293 0.0 0.0 0.00 0.00 0.00 89 1017.1
20180624235333 18 316 0.0 0.0 0.00 0.00 0.00 89 1017.0
20180624234305 18 293 0.0 0.0 0.00 0.00 0.00 89 1017.1
20180624233257 18 315 0.0 0.0 0.00 0.00 0.00 89 1017.1
20180624232252 18 301 0.0 0.0 0.00 0.00 0.00 88 1017.1
20180624231235 18 315 0.0 0.0 0.00 0.00 0.00 88 1017.1
20180624230233 18 302 0.0 0.0 0.00 0.00 0.00 88 1017.2
20180624225224 18 318 0.0 0.0 0.00 0.00 0.00 88 1017.2
20180624224223 18 309 0.0 0.0 0.00 0.00 0.00 88 1017.3
20180624223209 18 292 0.0 0.0 0.00 0.00 0.00 88 1017.2
20180624222153 18 318 0.0 0.0 0.00 0.00 0.00 88 1017.2
20180624221143 18 303 0.0 0.0 0.00 0.00 0.00 87 1017.3
20180624220139 18 284 0.0 1.6 0.00 0.00 0.00 87 1017.2
20180624215137 18 293 0.0 0.0 0.00 0.00 0.00 87 1017.3
20180624214131 18 307 0.0 0.0 0.00 0.00 0.00 87 1017.3
20180624213120 18 302 0.0 0.0 0.00 0.00 0.00 87 1017.3
20180624212112 18 306 0.0 0.0 0.00 0.00 0.00 87 1017.1
20180624211105 18 321 0.0 0.0 0.00 0.00 0.00 86 1017.1
20180624211056 18 323 0.0 0.0 0.00 0.00 0.00 86 1017.1
20180624205054 18 326 0.0 0.0 0.00 0.00 0.00 86 1016.9
20180624204041 18 327 0.0 0.0 0.00 0.00 0.00 86 1016.7
20180624203032 18 330 0.0 0.0 0.00 0.00 0.00 86 1016.5
20180624202020 18 332 0.0 0.0 0.00 0.00 0.00 86 1016.6
20180624201020 18 342 0.0 0.0 0.00 0.00 0.00 85 1016.5
20180624200010 18 344 0.0 0.0 0.00 0.00 0.00 85 1016.5
20180624195005 18 301 0.0 0.0 0.00 0.00 0.00 85 1016.3
20180624194003 18 14 0.0 0.0 0.00 0.00 0.00 84 1016.5
20180624193003 18 346 0.0 0.0 0.00 0.00 0.00 84 1016.4
20180624191959 19 332 0.0 0.0 0.00 0.00 0.00 84 1016.4
20180624190959 19 300 0.0 0.0 0.00 0.00 0.00 84 1016.4
20180624185958 19 311 0.0 0.0 0.00 0.00 0.00 83 1016.4
20180624184959 19 303 0.0 0.0 0.00 0.00 0.00 83 1016.4
20180624184007 19 324 0.0 0.0 0.00 0.00 0.00 83 1016.4
20180624182946 19 340 0.0 0.0 0.00 0.00 0.00 83 1016.4
20180624181946 20 310 0.0 0.0 0.00 0.00 0.00 82 1016.4
20180624180943 20 293 0.0 0.0 0.00 0.00 0.00 82 1016.4
20180624175938 20 5 0.0 0.0 0.00 0.00 0.00 82 1016.4
20180624174938 20 331 0.0 0.0 0.00 0.00 0.00 81 1016.4
20180624173942 20 341 0.0 0.0 0.00 0.00 0.00 82 1016.5
20180624172930 20 339 0.0 4.8 0.00 0.00 0.00 81 1016.4
20180624171926 20 342 0.0 11.3 0.00 0.00 0.00 80 1016.4
20180624170926 21 247 0.0 1.6 0.00 0.00 0.00 78 1016.5
20180624165925 21 286 0.0 0.0 0.00 0.00 0.00 76 1016.4
20180624164923 22 298 0.0 0.0 0.00 0.00 0.00 77 1016.3
20180624163930 22 293 0.0 0.0 0.00 0.00 0.00 76 1016.3
20180624162918 22 324 0.0 1.6 0.00 0.00 0.00 74 1016.3
20180624160929 22 346 0.0 0.0 0.00 0.00 0.00 77 1016.5
20180624155918 22 279 0.0 0.0 0.00 0.00 0.00 78 1016.4
20180624154916 22 248 0.0 0.0 0.00 0.00 0.00 78 1016.4
20180624153923 22 310 0.0 0.0 0.00 0.00 0.00 79 1016.4
20180624152911 22 290 0.0 0.0 0.00 0.00 0.00 80 1016.5
20180624151908 21 273 0.0 0.0 0.00 0.00 0.00 79 1016.5
20180624150908 21 286 0.0 0.0 0.00 0.00 0.00 78 1016.5
20180624145917 22 294 0.0 3.2 0.00 0.00 0.00 79 1016.7
20180624144900 21 317 0.0 0.0 0.00 0.00 0.00 79 1016.6
20180624143900 21 301 0.0 0.0 0.00 0.00 0.00 78 1016.6
20180624142902 22 305 0.0 0.0 0.00 0.00 0.00 77 1016.6
20180624141900 22 313 0.0 1.6 0.00 0.00 0.00 78 1016.6
20180624140858 22 321 0.0 4.8 0.00 0.00 0.00 79 1016.6
20180624135856 22 355 0.0 0.0 0.00 0.00 0.00 80 1016.6
20180624134858 22 329 0.0 0.0 0.00 0.00 0.00 79 1016.7
20180624133852 22 300 0.0 0.0 0.00 0.00 0.00 77 1016.7
20180624132850 22 319 0.0 0.0 0.00 0.00 0.00 80 1016.6
20180624131852 22 319 0.0 0.0 0.00 0.00 0.00 78 1016.7
20180624130854 22 307 0.0 0.0 0.00 0.00 0.00 77 1016.9
20180624125849 23 321 0.0 0.0 0.00 0.00 0.00 78 1016.7
20180624124850 23 15 0.0 8.0 0.00 0.00 0.00 75 1016.9
20180624123848 23 305 0.0 0.0 0.00 0.00 0.00 79 1016.7
20180624122848 23 297 0.0 0.0 0.00 0.00 0.00 78 1016.9
20180624121848 23 327 0.0 0.0 0.00 0.00 0.00 80 1016.9
20180624120845 22 329 0.0 0.0 0.00 0.00 0.00 82 1017.0
20180624115855 22 342 0.0 0.0 0.00 0.00 0.00 84 1017.0
20180624114834 21 332 0.0 0.0 0.00 0.00 0.00 85 1017.2
20180624113830 21 32 0.0 0.0 0.00 0.00 0.00 86 1017.1
20180624112825 21 355 0.0 0.0 0.00 0.00 0.00 88 1017.1
20180624111827 20 0 0.0 0.0 0.00 0.00 0.00 89 1017.1
20180624110811 20 355 0.0 0.0 0.00 0.00 0.00 90 1017.2
20180624105809 20 355 0.0 0.0 0.00 0.00 0.00 91 1017.2
20180624104812 19 5 0.0 0.0 0.00 0.00 0.00 92 1017.2
20180624103755 18 355 0.0 0.0 0.00 0.00 0.00 92 1017.2
20180624102755 18 86 0.0 0.0 0.00 0.00 0.00 93 1017.2
20180624101735 18 83 0.0 0.0 0.00 0.00 0.00 93 1017.3
20180624100726 18 80 0.0 0.0 0.00 0.00 0.00 93 1017.0
20180624095722 18 80 0.0 0.0 0.00 0.00 0.00 94 1017.1
20180624094722 17 119 0.0 0.0 0.00 0.00 0.00 94 1017.1
20180624093717 17 132 0.0 0.0 0.00 0.00 0.00 94 1017.0
20180624092712 17 134 0.0 0.0 0.00 0.00 0.00 94 1017.0
20180624091658 17 134 0.0 0.0 0.00 0.00 0.00 94 1017.1
20180624090650 17 134 0.0 0.0 0.00 0.00 0.00 95 1017.0
20180624085651 17 148 0.0 0.0 0.00 0.00 0.00 95 1016.9
20180624084652 17 161 0.0 0.0 0.00 0.00 0.00 95 1017.0
20180624083645 17 161 0.0 0.0 0.00 0.00 0.00 95 1017.0
20180624082638 17 161 0.0 0.0 0.00 0.00 0.00 95 1017.1
20180624081636 16 159 0.0 0.0 0.00 0.00 0.00 95 1017.1